[[{"header":{"parameterUnit":"m.s-1","parameterCategory":2,"la1":30.2992,"la2":30.254,"lo1":-89.0895,"lo2":-89.0443,"dy":0.0025,"dx":0.0025,"nx":19,"ny":19,"refTime":"2026-03-20T03:00:00:Z","depth":"0","parameterNumber":2,"parameterNumberName":"U-component_of_CURRENTS"},"data":[0,0,0,0.3906,0.3908,0.3955,0.3955,0.4015,0.4016,0,0,0,0,0,0,0,0,0,0,0,0.3873,0.3874,0.3906,0.3908,0.3955,0.3955,0.4015,0.4016,0,0,0,0,0,0,0,0,0,0,0,0.3873,0.3873,0.3874,0.3908,0.3955,0.3955,0.4015,0.3971,0,0,0,0,0,0,0,0,0,0,0.3922,0.3895,0.3873,0.3874,0.3909,0.3955,0.3955,0.3969,0.3974,0.4004,0,0.4023,0,0.4045,0.4023,0.4023,0,0,0,0.3876,0.389,0.3922,0.3874,0.391,0.3955,0.3925,0.3972,0.3978,0.4011,0.4025,0.4027,0.4046,0.4024,0.4024,0.409,0.409,0,0,0.3873,0.3861,0.3918,0.3926,0.394,0.3924,0.3927,0.3975,0.3978,0.4025,0.4029,0.4047,0.4024,0.4025,0.4091,0.409,0,0,0,0.3887,0.3859,0.3888,0.3923,0.3945,0.3926,0.3929,0.3974,0.399,0.403,0.4047,0.4025,0.4026,0.4091,0.409,0.4057,0,0,0,0.3884,0.387,0.3887,0.3877,0.3945,0.396,0.3928,0.3986,0.3993,0.4047,0.4025,0.4027,0.4091,0.4091,0.4058,0.4018,0,0,0,0.3868,0.3868,0.3883,0.3877,0.3916,0.396,0.3976,0.3987,0.4006,0.4023,0.4027,0.4091,0.4091,0.4059,0.4021,0.3987,0,0,0,0.3839,0.3895,0.3882,0.3945,0.3916,0.3962,0.3976,0.4016,0.4034,0.4025,0.4091,0.409,0.4059,0.4022,0.3988,0.3807,0.3784,0,0,0.3901,0.3901,0.394,0.3933,0.3975,0.3952,0.3967,0.4007,0.4037,0.407,0.4071,0.4058,0.4021,0.3987,0.3801,0.3777,0,0,0,0.3956,0.3965,0.3982,0.3998,0.4023,0.3979,0.4011,0.402,0.4044,0.4055,0.4065,0.4042,0.4022,0.3917,0.3899,0.3598,0.409,0.409,0.409,0.3992,0.3999,0.4013,0.4005,0.4011,0.4006,0.3989,0.3998,0.4045,0.4052,0.4021,0.3977,0.3866,0.3851,0.3543,0.4042,0.4042,0.4042,0.4042,0.402,0.3998,0.3975,0.3981,0.3941,0.3932,0.3941,0.3966,0.396,0.4001,0.3984,0.3894,0.3828,0.3508,0.404,0.404,0.404,0.4041,0.4041,0.3984,0.3963,0.3962,0.3918,0.3867,0.3859,0.3805,0.3853,0.391,0.3896,0.3779,0.3777,0.3488,0.3889,0.3889,0.3889,0.3888,0.3888,0.3888,0.3928,0.3922,0.3883,0.3843,0.379,0.3735,0.3727,0.3717,0.3692,0.3704,0.3703,0.341,0.393,0.3928,0.3883,0.3884,0.3884,0.3885,0.3885,0.3847,0.3865,0.3796,0.3747,0.3634,0.3462,0.3523,0.3416,0.3437,0.3386,0.3102,0.3605,0.359,0.3603,0.3592,0.3463,0.3463,0.3463,0.3463,0.3786,0.3797,0.3678,0.358,0.3453,0.3328,0.304,0.2974,0.2865,0.2719,0.276,0.271,0.274,0.2675,0.2709,0.2681,0.2323,0.2321,0.232,0.3711,0.3696,0.3567,0.3498,0.3343,0.3121,0.2712,0.2372,0.2218,0.225,0.2369,0.2418,0.233,0.2403,0.23,0.2372,0.2329,0,0]},{"header":{"parameterUnit":"m.s-1","parameterCategory":2,"la1":30.2992,"la2":30.254,"lo1":-89.0895,"lo2":-89.0443,"dy":0.0025,"dx":0.0025,"nx":19,"ny":19,"refTime":"2026-03-20T03:00:00:Z","depth":"0","parameterNumber":3,"parameterNumberName":"V-component_of_CURRENTS"},"data":[0,0,0,0.046,0.0461,0.0487,0.0487,0.0641,0.0642,0,0,0,0,0,0,0,0,0,0,0,0.0447,0.0447,0.046,0.0461,0.0487,0.0487,0.064,0.0642,0,0,0,0,0,0,0,0,0,0,0,0.0447,0.0447,0.0447,0.0461,0.0487,0.0487,0.064,0.0592,0,0,0,0,0,0,0,0,0,0,0.0552,0.0522,0.0447,0.0447,0.0461,0.0487,0.0487,0.0588,0.0595,0.0661,0,0.0654,0,0.0654,0.0655,0.0655,0,0,0,0.0468,0.0516,0.0521,0.0447,0.0461,0.0487,0.0477,0.0591,0.0599,0.067,0.0656,0.0661,0.0657,0.0656,0.0657,0.0915,0.0916,0,0,0.0466,0.0461,0.0515,0.0526,0.0457,0.0476,0.0478,0.0594,0.0603,0.0656,0.0664,0.0659,0.0657,0.0658,0.0913,0.0915,0,0,0,0.0457,0.046,0.046,0.052,0.0517,0.0477,0.0479,0.0597,0.0596,0.0665,0.0661,0.0658,0.066,0.0912,0.0914,0.0955,0,0,0,0.0457,0.0455,0.0459,0.0458,0.0513,0.0542,0.0479,0.0587,0.06,0.066,0.0658,0.0662,0.091,0.0913,0.0951,0.0984,0,0,0,0.0448,0.0454,0.0452,0.0457,0.0465,0.0539,0.0544,0.0589,0.0599,0.0655,0.0663,0.0909,0.0913,0.0947,0.0978,0.1077,0,0,0,0.0449,0.043,0.0452,0.045,0.0465,0.0517,0.0543,0.0587,0.0631,0.0659,0.091,0.0914,0.0945,0.0974,0.1072,0.1036,0.1056,0,0,0.0422,0.0427,0.043,0.045,0.0492,0.0514,0.062,0.0679,0.0719,0.0878,0.0883,0.0952,0.0977,0.1076,0.1234,0.1248,0,0,0,0.0421,0.0427,0.0442,0.0477,0.0521,0.0632,0.068,0.0751,0.0891,0.0761,0.1011,0.1027,0.1087,0.1057,0.1069,0.0984,0.093,0.0929,0.0929,0.038,0.0423,0.0463,0.0536,0.0597,0.0726,0.0835,0.0963,0.0957,0.1048,0.1103,0.1267,0.1236,0.1245,0.1159,0.1145,0.1145,0.1145,0.1145,0.0389,0.0443,0.0519,0.0572,0.0707,0.0816,0.1034,0.108,0.1281,0.1231,0.1287,0.1154,0.126,0.1164,0.1149,0.1148,0.1148,0.1147,0.1147,0.0408,0.0449,0.0477,0.0604,0.075,0.0899,0.1119,0.1243,0.1339,0.1414,0.1394,0.1391,0.1271,0.1432,0.1433,0.1433,0.1434,0.1434,0.1435,0.0435,0.0473,0.0548,0.0658,0.0755,0.0933,0.1178,0.131,0.144,0.1474,0.1473,0.1334,0.1356,0.1303,0.1444,0.1442,0.1441,0.144,0.144,0.0505,0.0515,0.0626,0.0709,0.0917,0.1084,0.1257,0.145,0.1565,0.1614,0.1457,0.1524,0.1518,0.1506,0.146,0.1633,0.1633,0.1633,0.1633,0.056,0.0571,0.0735,0.0876,0.1051,0.1185,0.1381,0.1511,0.1549,0.1522,0.1491,0.1378,0.1374,0.1352,0.1345,0.1293,0.142,0.142,0.142,0.0634,0.0671,0.0804,0.0927,0.1119,0.1277,0.1412,0.1476,0.1457,0.1403,0.1388,0.1397,0.122,0.122,0.117,0.1166,0.1075,0,0]}],[{"header":{"parameterUnit":"m.s-1","parameterCategory":2,"la1":30.2992,"la2":30.254,"lo1":-89.0895,"lo2":-89.0443,"dy":0.0025,"dx":0.0025,"nx":19,"ny":19,"refTime":"2026-03-20T03:00:00:Z","depth":"2","parameterNumber":2,"parameterNumberName":"U-component_of_CURRENTS"},"data":[0,0,0,0.1843,0.1846,0.1992,0.1992,0.223,0.2232,0,0,0,0,0,0,0,0,0,0,0,0.1786,0.1786,0.1843,0.1847,0.1992,0.1992,0.2229,0.2232,0,0,0,0,0,0,0,0,0,0,0,0.1785,0.1786,0.1787,0.1847,0.1991,0.1992,0.2229,0.2108,0,0,0,0,0,0,0,0,0,0,0.1962,0.1927,0.1786,0.1787,0.1848,0.1991,0.1992,0.2102,0.2116,0.2176,0,0.2189,0,0.2218,0.2248,0.2249,0,0,0,0.1855,0.1915,0.1926,0.1787,0.1849,0.1991,0.1929,0.2109,0.2125,0.2194,0.2192,0.2201,0.2222,0.225,0.2251,0.2634,0.2636,0,0,0.1847,0.1847,0.1915,0.1935,0.1877,0.1924,0.1933,0.2118,0.2149,0.2193,0.2207,0.2226,0.2251,0.2253,0.2632,0.2635,0,0,0,0.1818,0.1842,0.1847,0.1925,0.1949,0.1928,0.1938,0.2141,0.2134,0.2209,0.2229,0.2253,0.2256,0.2629,0.2633,0.2698,0,0,0,0.1814,0.1824,0.1843,0.185,0.1945,0.2049,0.1957,0.2121,0.2143,0.2227,0.2253,0.2258,0.2626,0.2631,0.269,0.2639,0,0,0,0.1781,0.1822,0.1827,0.1848,0.1905,0.2045,0.2051,0.2126,0.2156,0.2249,0.2259,0.2625,0.263,0.2684,0.2631,0.261,0,0,0,0.179,0.1779,0.1828,0.1845,0.1903,0.1976,0.205,0.2147,0.2224,0.2254,0.2627,0.2632,0.2682,0.2627,0.2607,0.2355,0.235,0,0,0.1764,0.1777,0.1784,0.1829,0.1895,0.1957,0.2082,0.2219,0.2346,0.2564,0.2573,0.2693,0.2631,0.2609,0.2682,0.2666,0,0,0,0.1767,0.1783,0.1808,0.1874,0.1933,0.2061,0.2178,0.2295,0.2583,0.242,0.2791,0.2749,0.2732,0.2579,0.2569,0.2659,0.2659,0.2658,0.2657,0.1758,0.1795,0.1843,0.1916,0.199,0.2158,0.2289,0.2506,0.261,0.2805,0.2879,0.3002,0.2851,0.2838,0.3009,0.3009,0.301,0.301,0.301,0.1757,0.1809,0.1893,0.1966,0.2106,0.2245,0.2485,0.2622,0.2913,0.3013,0.2996,0.2751,0.2828,0.3017,0.3016,0.3015,0.3014,0.3014,0.3013,0.1792,0.1822,0.1883,0.2022,0.2197,0.2361,0.2544,0.2769,0.2945,0.3027,0.2855,0.2849,0.2916,0.3064,0.3064,0.3063,0.3063,0.3063,0.3063,0.1821,0.1864,0.1951,0.2098,0.2223,0.2407,0.2643,0.2727,0.2793,0.2861,0.2859,0.3018,0.3016,0.292,0.306,0.306,0.3061,0.3061,0.3061,0.1845,0.1886,0.1999,0.2104,0.2324,0.2338,0.2545,0.2531,0.2625,0.2558,0.2734,0.2743,0.266,0.2666,0.2565,0.2603,0.2603,0.2603,0.2603,0.1866,0.1886,0.2033,0.215,0.2286,0.2305,0.2177,0.2077,0.2154,0.2108,0.2129,0.2083,0.2112,0.1996,0.2019,0.1902,0.1768,0.1767,0.1765,0.1856,0.1915,0.2001,0.212,0.2253,0.2157,0.1861,0.1537,0.1471,0.1733,0.199,0.2545,0.2537,0.256,0.243,0.2447,0.2279,0,0]},{"header":{"parameterUnit":"m.s-1","parameterCategory":2,"la1":30.2992,"la2":30.254,"lo1":-89.0895,"lo2":-89.0443,"dy":0.0025,"dx":0.0025,"nx":19,"ny":19,"refTime":"2026-03-20T03:00:00:Z","depth":"2","parameterNumber":3,"parameterNumberName":"V-component_of_CURRENTS"},"data":[0,0,0,-0.0254,-0.0255,-0.0296,-0.0296,-0.0303,-0.0303,0,0,0,0,0,0,0,0,0,0,0,-0.0242,-0.0242,-0.0254,-0.0255,-0.0296,-0.0296,-0.0303,-0.0303,0,0,0,0,0,0,0,0,0,0,0,-0.0241,-0.0242,-0.0242,-0.0255,-0.0296,-0.0296,-0.0303,-0.0282,0,0,0,0,0,0,0,0,0,0,-0.0248,-0.0242,-0.0242,-0.0242,-0.0255,-0.0296,-0.0296,-0.0282,-0.0284,-0.0273,0,-0.0288,0,-0.0296,-0.0303,-0.0303,0,0,0,-0.025,-0.024,-0.0255,-0.0243,-0.0256,-0.0296,-0.0276,-0.0283,-0.0285,-0.0276,-0.0288,-0.0288,-0.0296,-0.0303,-0.0303,-0.0174,-0.0173,0,0,-0.0248,-0.0242,-0.0254,-0.0257,-0.0276,-0.0275,-0.0277,-0.0285,-0.0287,-0.0288,-0.0289,-0.0297,-0.0303,-0.0303,-0.0176,-0.0174,0,0,0,-0.0245,-0.0241,-0.0256,-0.0256,-0.0268,-0.0276,-0.0279,-0.0287,-0.0294,-0.0289,-0.0297,-0.0303,-0.0303,-0.0177,-0.0175,-0.0084,0,0,0,-0.0243,-0.0239,-0.0255,-0.0251,-0.0268,-0.0283,-0.0281,-0.0293,-0.0295,-0.0297,-0.0303,-0.0303,-0.0179,-0.0176,-0.0089,-0.0058,0,0,0,-0.0238,-0.0238,-0.0247,-0.0251,-0.0272,-0.0284,-0.0291,-0.0294,-0.0299,-0.0303,-0.0303,-0.018,-0.0176,-0.0095,-0.0066,0.0025,0,0,0,-0.0225,-0.0233,-0.0247,-0.0257,-0.0271,-0.0297,-0.0291,-0.0315,-0.0323,-0.0303,-0.0178,-0.0175,-0.0096,-0.0071,0.0019,0.0114,0.0148,0,0,-0.0224,-0.0233,-0.0237,-0.0251,-0.0278,-0.0291,-0.028,-0.0293,-0.0252,-0.0176,-0.0174,-0.0088,-0.0067,0.0024,0.0307,0.0335,0,0,0,-0.0229,-0.0239,-0.0248,-0.0269,-0.029,-0.0274,-0.0301,-0.0243,-0.0121,-0.024,-0.0045,-0.0034,0.002,0.0067,0.009,-0.0159,-0.016,-0.016,-0.016,-0.0242,-0.0248,-0.0263,-0.0277,-0.0282,-0.0268,-0.0195,-0.0103,-0.0109,0.0004,0.0072,0.0246,0.03,0.0318,0.0113,0.0114,0.0114,0.0114,0.0115,-0.0255,-0.0272,-0.0264,-0.0281,-0.0262,-0.0246,-0.0085,-0.0017,0.022,0.0194,0.0243,0.0201,0.0348,0.0123,0.0121,0.012,0.0119,0.0119,0.0118,-0.0279,-0.0287,-0.0293,-0.0288,-0.024,-0.0186,0.0038,0.018,0.0299,0.0415,0.0481,0.0479,0.0281,0.0455,0.0455,0.0456,0.0457,0.0457,0.0457,-0.0314,-0.0315,-0.0295,-0.0275,-0.0222,-0.0081,0.0158,0.0322,0.0517,0.06,0.0601,0.0361,0.035,0.0302,0.0466,0.0465,0.0464,0.0463,0.0462,-0.0347,-0.0337,-0.0283,-0.0234,-0.0066,0.0176,0.033,0.063,0.0761,0.0854,0.0713,0.0704,0.0683,0.0665,0.0627,0.0865,0.0865,0.0865,0.0865,-0.036,-0.0357,-0.0235,-0.0098,0.0098,0.0313,0.0687,0.0854,0.0928,0.0904,0.0901,0.0832,0.0817,0.0796,0.0775,0.0735,0.1002,0.1001,0.1001,-0.036,-0.0322,-0.0201,-0.0062,0.0178,0.0503,0.086,0.0987,0.0938,0.0996,0.0818,0.0895,0.0784,0.0763,0.0717,0.0689,0.0618,0,0]}],[{"header":{"parameterUnit":"m.s-1","parameterCategory":2,"la1":30.2992,"la2":30.254,"lo1":-89.0895,"lo2":-89.0443,"dy":0.0025,"dx":0.0025,"nx":19,"ny":19,"refTime":"2026-03-20T03:00:00:Z","depth":"4","parameterNumber":2,"parameterNumberName":"U-component_of_CURRENTS"},"data":[0,0,0,-0.0011,-0.0011,-0.0029,-0.0029,0.0014,0.0015,0,0,0,0,0,0,0,0,0,0,0,-0.0007,-0.0007,-0.0011,-0.0012,-0.0029,-0.0029,0.0014,0.0015,0,0,0,0,0,0,0,0,0,0,0,-0.0007,-0.0007,-0.0007,-0.0012,-0.0029,-0.0029,0.0014,0.0009,0,0,0,0,0,0,0,0,0,0,0.0018,0.0002,-0.0007,-0.0007,-0.0012,-0.0029,-0.0029,0.0008,0.001,0.0043,0,0.0042,0,0.0035,0.002,0.002,0,0,0,-0.0018,0.0001,0.0011,-0.0007,-0.0012,-0.0029,-0.0023,0.0009,0.001,0.0045,0.0042,0.0043,0.0036,0.002,0.0021,0.0151,0.0152,0,0,-0.0017,-0.0022,0.0009,0.0012,-0.0012,-0.0022,-0.0023,0.0009,0.0006,0.0042,0.0044,0.0037,0.0021,0.0021,0.015,0.0151,0,0,0,-0.001,-0.0022,-0.0015,0.001,0.0005,-0.0023,-0.0024,0.0004,0.001,0.0044,0.0037,0.0021,0.0022,0.0149,0.0151,0.0238,0,0,0,-0.001,-0.0017,-0.0014,-0.0019,0.0004,-0.0008,-0.003,0.0007,0.0011,0.0037,0.0021,0.0023,0.0148,0.015,0.0233,0.0241,0,0,0,-0.0007,-0.0017,-0.0015,-0.0019,-0.0023,-0.0009,-0.0002,0.0007,0.0007,0.002,0.0023,0.0148,0.015,0.0229,0.0235,0.023,0,0,0,-0.0017,-0.005,-0.0015,-0.0053,-0.0022,-0.0031,-0.0003,0.001,0.0021,0.0022,0.0149,0.0151,0.0228,0.0232,0.0227,0.0142,0,0,0,-0.0072,-0.0057,-0.008,-0.0049,-0.0067,-0.0029,-0.0001,0.0043,0.007,0.0139,0.0141,0.0235,0.0235,0.0229,0.0265,0,0,0,0,-0.0106,-0.0105,-0.0114,-0.0106,-0.0097,-0.0029,0.0011,0.0071,0.0183,0.0088,0.0253,0.0249,0.0243,0.0187,0.0161,0.016,0.016,0.016,0.016,-0.0149,-0.0138,-0.0151,-0.0118,-0.01,-0.0006,0.0067,0.0174,0.0199,0.0292,0.0335,0.0408,0.0358,0.0367,0.0367,0.0368,0.0368,0.0368,0.0369,-0.018,-0.018,-0.0129,-0.0134,-0.0046,0.0022,0.0183,0.0262,0.0404,0.0423,0.0414,0.0303,0.0378,0.0376,0.0375,0.0374,0.0373,0.0372,0.0372,-0.0187,-0.0188,-0.017,-0.0132,-0.0022,0.0092,0.0234,0.0383,0.0463,0.0511,0.0424,0.0443,0.0415,0.0517,0.0517,0.0517,0.0517,0.0517,0.0517,-0.0208,-0.0193,-0.0185,-0.0122,-0.0067,0.0078,0.029,0.035,0.045,0.049,0.0534,0.0456,0.0451,0.0422,0.0518,0.0518,0.0518,0.0518,0.0518,-0.0253,-0.0237,-0.0231,-0.0203,-0.0085,0.0028,0.0204,0.0332,0.0372,0.0376,0.0456,0.0459,0.0399,0.0395,0.0361,0.0442,0.0442,0.0441,0,-0.0283,-0.0276,-0.0268,-0.0238,-0.0155,-0.0005,0.0096,0.018,0.0283,0.0312,0.0302,0.0387,0.0392,0.0315,0.0311,0.0266,0,0,0,-0.0313,-0.0303,-0.0311,-0.028,-0.0182,-0.0005,0.0136,0.0181,0.0302,0.0293,0.0421,0.0426,0.0356,0.0521,0.0435,0.0429,0.0376,0,0]},{"header":{"parameterUnit":"m.s-1","parameterCategory":2,"la1":30.2992,"la2":30.254,"lo1":-89.0895,"lo2":-89.0443,"dy":0.0025,"dx":0.0025,"nx":19,"ny":19,"refTime":"2026-03-20T03:00:00:Z","depth":"4","parameterNumber":3,"parameterNumberName":"V-component_of_CURRENTS"},"data":[0,0,0,0.0403,0.0405,0.0508,0.0508,0.0603,0.0604,0,0,0,0,0,0,0,0,0,0,0,0.0375,0.0376,0.0403,0.0405,0.0508,0.0508,0.0603,0.0604,0,0,0,0,0,0,0,0,0,0,0,0.0375,0.0376,0.0377,0.0406,0.0508,0.0508,0.0603,0.0535,0,0,0,0,0,0,0,0,0,0,0.044,0.042,0.0376,0.0377,0.0406,0.0507,0.0508,0.0532,0.0539,0.0546,0,0.057,0,0.0585,0.0609,0.0609,0,0,0,0.0408,0.0414,0.044,0.0377,0.0407,0.0507,0.0462,0.0536,0.0544,0.0555,0.0572,0.0575,0.0586,0.0609,0.061,0.063,0.063,0,0,0.0402,0.0394,0.0434,0.0445,0.0445,0.0459,0.0465,0.0542,0.0555,0.0572,0.0578,0.0588,0.061,0.0611,0.0631,0.063,0,0,0,0.0384,0.039,0.0415,0.0441,0.046,0.0462,0.0469,0.0552,0.056,0.0579,0.0589,0.061,0.0611,0.0631,0.063,0.0658,0,0,0,0.0381,0.038,0.0412,0.0409,0.0459,0.0512,0.0478,0.0555,0.0564,0.0588,0.0611,0.0612,0.0631,0.0631,0.0658,0.0687,0,0,0,0.0369,0.0378,0.0393,0.0408,0.045,0.0511,0.0524,0.0557,0.0569,0.0609,0.0612,0.0632,0.0631,0.0658,0.0686,0.0616,0,0,0,0.0352,0.0378,0.0393,0.0431,0.0449,0.0508,0.0524,0.0587,0.0625,0.0611,0.0631,0.063,0.0658,0.0686,0.0617,0.0574,0,0,0,0.037,0.0381,0.0401,0.0417,0.0465,0.0493,0.0538,0.0603,0.0604,0.0605,0.0607,0.0658,0.0686,0.0616,0.0522,0,0,0,0,0.0397,0.0415,0.0431,0.047,0.0508,0.0539,0.0594,0.0596,0.0614,0.0621,0.0632,0.0649,0.0604,0.0579,0.0626,0.0626,0.0626,0.0626,0.0627,0.041,0.0432,0.0469,0.0502,0.0536,0.0584,0.0594,0.0599,0.0622,0.0617,0.0651,0.0595,0.057,0.0618,0.0618,0.0619,0.0619,0.0619,0.0619,0.0434,0.045,0.0492,0.0545,0.0576,0.0632,0.0623,0.0633,0.0604,0.0633,0.0586,0.0588,0.0621,0.062,0.062,0.062,0.062,0.062,0.0619,0.0431,0.0437,0.0496,0.0566,0.065,0.07,0.0694,0.0708,0.0639,0.0615,0.0544,0.0588,0.0605,0.0587,0.0587,0.0587,0.0586,0.0586,0.0586,0.0394,0.044,0.0513,0.0602,0.0684,0.0757,0.0768,0.0686,0.0627,0.0569,0.0628,0.0583,0.0584,0.06,0.0583,0.0584,0.0584,0.0584,0.0585,0.0355,0.0401,0.049,0.0577,0.0723,0.0749,0.0774,0.0616,0.0499,0.0395,0.0498,0.0503,0.0477,0.048,0.0493,0.0443,0.0442,0.0442,0,0.0322,0.035,0.0482,0.06,0.0657,0.0734,0.058,0.0483,0.0408,0.0446,0.0436,0.0558,0.056,0.0537,0.0539,0.0555,0,0,0,0.0288,0.0338,0.0422,0.0559,0.0649,0.0561,0.053,0.0474,0.0495,0.0329,0.0425,0.043,0.0448,0.0575,0.0547,0.0548,0.0572,0,0]}]]